Vorticity
6 6 4 2 4 4 3 3 3 2 4 4 3 5 4 4 5 5 7 7 7 7 8 8 8 7 7 7 7 7 7 7 6 6 6 6 6 6 5 5 5 5 6
5 6 4 3 6 4 4 2 4 4 4 4 4 4 4 5 6 6 7 8 8 8 8 8 8 8 7 7 6 6 6 6 5 5 5 5 5 4 4 5 5 5 6
7 5 4 7 5 4 5 3 4 5 4 5 4 5 6 7 7 7 7 7 7 7 8 8 9 9 9 10 10 10 10 9 8 7 6 5 5 5 4 4 4 4 5
5 6 7 8 5 7 7 5 5 5 5 4 4 6 8 8 8 8 7 7 6 6 6 6 6 7 7 7 7 8 8 9 9 9 9 9 9 9 8 7 7 6 5
6 7 10 8 8 9 7 5 4 4 3 4 6 8 9 9 8 7 7 7 6 6 5 4 4 4 4 4 4 5 5 6 7 7 7 8 8 8 9 9 8 8 8
4 4 6 10 9 10 4 3 2 6 5 6 7 9 9 8 8 8 7 6 4 4 3 3 3 4 4 5 5 5 5 5 6 6 7 7 7 8 8 8 8 8 8
3 3 7 5 5 3 1 5 6 6 6 7 8 10 9 8 8 7 6 5 4 3 3 4 4 4 5 5 6 6 6 5 6 6 7 8 8 9 9 9 9 9 8
7 5 2 8 7 3 8 6 5 7 7 7 9 9 8 7 8 7 5 4 3 3 3 3 3 3 4 4 5 6 6 6 5 7 8 9 9 9 9 10 10 9 9
1 6 5 2 5 7 6 5 7 7 6 6 8 9 9 8 10 7 7 4 3 3 3 3 3 3 4 3 3 4 6 7 5 7 9 10 9 9 9 8 7 7 7
4 9 5 5 7 6 5 8 4 8 7 4 7 12 10 9 7 6 5 5 4 4 3 3 3 2 2 2 2 2 3 7 6 8 9 9 10 9 8 7 6 6 5
10 5 4 7 11 13 1 7 8 2 13 -2 3 13 12 10 7 6 5 4 4 4 4 4 3 2 2 3 4 7 6 7 8 9 9 9 8 7 6 6 6 7 7
8 5 8 1 4 6 9 7 8 8 23 -3 3 7 6 8 11 6 5 4 3 5 4 4 3 3 2 1 4 5 8 9 9 10 10 8 6 6 6 7 7 7 7
7 14 4 2 5 9 5 8 9 -5 7 19 4 7 1 13 9 7 4 5 3 3 3 3 3 2 -0 0 7 7 10 10 10 9 8 7 8 8 8 7 6 6 6
19 25 11 4 7 9 10 -1 10 9 2 -2 36 11 0 0 6 7 8 -5 5 3 3 3 2 1 1 4 3 11 10 9 8 7 7 8 8 7 7 6 6 6 7
6 10 16 9 2 -1 9 3 10 5 7 2 27 10 9 -9 4 0 -11 21 1 5 3 2 2 -0 5 9 12 11 11 8 8 8 8 7 6 5 7 7 9 11 14
15 5 6 18 2 6 5 5 10 9 3 3 -9 10 -20 20 -9 6 5 23 9 4 1 2 0 3 9 13 12 10 8 8 8 7 7 8 9 10 12 14 16 19 20
15 14 13 13 18 10 0 6 13 10 4 1 -6 24 -10 12 6 26 4 3 -1 6 3 -0 4 10 13 11 8 7 8 7 6 9 11 12 14 17 18 20 19 20 20
16 13 9 11 6 6 5 2 15 2 -4 -1 19 5 16 -1 -7 31 8 2 6 3 0 9 9 12 9 7 7 7 6 7 11 13 16 17 21 22 21 19 17 14 12
11 17 12 7 4 6 6 8 7 24 -14 10 30 24 13 -2 13 7 9 4 3 1 9 10 9 8 7 8 6 6 8 12 15 19 21 21 19 16 14 14 12 12 13
12 17 13 11 8 8 10 8 16 4 26 1 24 14 11 16 6 11 3 3 6 10 11 9 7 7 6 6 10 9 11 16 23 24 19 14 14 15 16 12 11 11 9
14 21 16 13 8 0 -3 17 23 0 9 13 -2 6 17 7 13 5 4 8 11 9 7 7 7 6 9 11 9 13 20 21 22 14 11 18 13 13 10 8 9 9 10
17 18 15 10 9 -4 19 3 10 11 7 29 35 16 13 4 4 5 10 9 7 8 6 6 7 9 10 9 16 19 20 14 14 14 9 9 13 10 10 11 14 17 15
15 18 10 -2 7 14 4 24 17 25 13 10 20 5 4 4 9 10 8 7 7 7 8 8 8 11 16 18 17 18 13 12 11 10 12 10 11 10 13 15 14 11 11
25 10 -6 11 7 6 30 23 14 21 24 8 3 5 11 10 7 6 5 6 6 8 7 7 13 15 17 20 16 11 13 8 6 11 11 10 11 11 12 11 13 12 14
10 28 20 33 22 23 31 15 5 4 2 8 8 6 6 6 6 8 6 5 7 9 9 14 18 22 20 15 10 10 7 7 8 10 12 10 11 11 13 16 20 19 19
20 28 25 20 15 6 3 4 5 7 7 6 6 8 8 7 5 4 6 7 8 10 15 24 26 21 12 11 9 7 7 7 8 10 12 7 10 9 11 14 15 13 19
Height
3165 3166 3165 3165 3165 3165 3165 3166 3165 3164 3163 3163 3163 3162 3162 3160 3159 3157 3156 3155 3154 3153 3151 3150 3149 3148 3148 3148 3148 3148 3148 3147 3147 3147 3146 3146 3146 3146 3145 3145 3145 3145 3145
3160 3161 3161 3161 3162 3162 3162 3162 3162 3161 3161 3160 3160 3159 3159 3157 3156 3155 3153 3152 3151 3150 3149 3148 3147 3146 3146 3145 3145 3145 3144 3144 3143 3143 3143 3142 3142 3141 3141 3141 3141 3140 3140
3155 3155 3156 3157 3158 3158 3158 3158 3158 3158 3157 3157 3156 3156 3155 3154 3153 3151 3150 3149 3148 3147 3146 3146 3144 3144 3143 3143 3142 3141 3141 3140 3139 3138 3137 3137 3136 3136 3135 3134 3135 3134 3134
3149 3149 3151 3152 3152 3154 3154 3154 3154 3153 3154 3153 3152 3151 3150 3150 3149 3148 3147 3146 3145 3144 3144 3143 3142 3141 3140 3139 3138 3137 3136 3136 3134 3133 3132 3131 3130 3129 3128 3128 3127 3127 3126
3143 3145 3145 3146 3147 3148 3149 3149 3149 3149 3149 3148 3148 3147 3146 3145 3145 3144 3143 3143 3142 3142 3141 3140 3139 3137 3136 3135 3134 3132 3130 3129 3128 3127 3126 3124 3123 3122 3121 3119 3119 3118 3118
3137 3139 3140 3141 3143 3143 3144 3144 3144 3143 3143 3143 3142 3141 3141 3141 3140 3140 3140 3139 3138 3137 3136 3135 3134 3133 3132 3131 3129 3127 3125 3124 3122 3121 3119 3118 3116 3114 3112 3111 3110 3109 3108
3130 3132 3134 3135 3136 3137 3138 3138 3138 3138 3138 3138 3137 3136 3136 3136 3136 3136 3135 3135 3134 3133 3132 3132 3131 3129 3128 3126 3124 3122 3120 3118 3115 3113 3111 3109 3108 3106 3104 3103 3101 3100 3099
3124 3126 3128 3129 3130 3131 3131 3132 3132 3132 3132 3132 3131 3130 3130 3131 3130 3130 3130 3131 3130 3129 3128 3127 3126 3125 3123 3121 3119 3116 3114 3111 3109 3106 3103 3101 3098 3096 3095 3093 3092 3091 3090
3118 3118 3121 3122 3123 3124 3125 3125 3125 3126 3126 3126 3125 3125 3124 3125 3125 3125 3125 3125 3125 3123 3122 3121 3120 3119 3117 3115 3112 3110 3107 3104 3101 3097 3094 3091 3088 3086 3084 3082 3081 3080 3078
3109 3110 3112 3114 3116 3117 3118 3118 3118 3119 3120 3120 3119 3118 3117 3118 3118 3119 3120 3119 3119 3117 3116 3114 3113 3111 3109 3106 3104 3101 3098 3094 3091 3088 3084 3081 3078 3076 3074 3071 3070 3068 3066
3100 3102 3104 3106 3108 3109 3110 3110 3111 3112 3112 3113 3113 3112 3111 3111 3111 3112 3112 3112 3111 3110 3109 3107 3105 3103 3100 3097 3094 3090 3087 3084 3080 3077 3074 3071 3068 3065 3062 3060 3058 3056 3055
3089 3093 3095 3098 3100 3101 3103 3104 3104 3104 3104 3104 3104 3105 3104 3104 3104 3104 3104 3104 3104 3103 3102 3100 3097 3094 3091 3087 3084 3080 3076 3072 3069 3066 3063 3060 3057 3054 3051 3048 3045 3042 3041
3078 3082 3085 3089 3091 3093 3095 3096 3097 3097 3098 3097 3095 3097 3097 3096 3096 3096 3096 3095 3095 3094 3093 3092 3089 3085 3081 3078 3074 3069 3065 3061 3057 3054 3051 3049 3046 3042 3038 3034 3031 3028 3025
3067 3072 3075 3079 3082 3084 3086 3087 3088 3089 3090 3089 3089 3086 3087 3088 3087 3088 3088 3087 3086 3085 3085 3084 3082 3078 3073 3069 3064 3059 3054 3050 3046 3042 3039 3036 3031 3027 3023 3020 3016 3012 3009
3057 3061 3064 3068 3071 3073 3076 3078 3079 3080 3081 3080 3079 3079 3078 3078 3077 3078 3078 3076 3075 3074 3074 3076 3071 3069 3063 3059 3054 3047 3043 3038 3034 3030 3025 3021 3016 3011 3007 3003 2998 2994 2991
3047 3051 3054 3058 3061 3054 3065 3068 3068 3069 3071 3071 3070 3070 3068 3069 3068 3067 3068 3067 3066 3064 3061 3061 3060 3056 3051 3046 3041 3035 3030 3024 3020 3015 3009 3004 2999 2993 2989 2983 2979 2975 2973
3036 3040 3044 3047 3051 3054 3056 3058 3060 3060 3061 3060 3060 3059 3059 3059 3057 3057 3057 3057 3056 3054 3049 3049 3044 3041 3037 3033 3029 3023 3016 3010 3005 3000 2994 2988 2981 2975 2971 2966 2962 2959 2957
3025 3029 3033 3037 3040 3043 3047 3049 3049 3051 3050 3047 3051 3049 3049 3048 3047 3047 3048 3045 3044 3042 3038 3035 3032 3028 3023 3020 3014 3008 3002 2997 2990 2984 2978 2971 2966 2961 2957 2954 2949 2947 2944
3014 3018 3023 3027 3032 3035 3037 3039 3041 3041 3041 3041 3037 3040 3036 3037 3036 3037 3036 3036 3034 3031 3027 3022 3017 3014 3010 3005 2999 2994 2987 2983 2976 2970 2964 2958 2953 2949 2945 2941 2937 2935 2932
3006 3009 3014 3019 3024 3027 3028 3029 3031 3031 3028 3029 3032 3030 3031 3025 3028 3027 3026 3025 3023 3020 3016 3010 3005 3001 2996 2991 2985 2978 2973 2968 2962 2958 2953 2947 2944 2939 2934 2931 2928 2923 2919
3001 3003 3007 3012 3016 3018 3019 3022 3021 3020 3021 3022 3022 3022 3020 3021 3019 3019 3018 3015 3012 3008 3004 2999 2994 2988 2984 2978 2971 2965 2958 2953 2952 2949 2944 2939 2935 2931 2927 2923 2918 2914 2909
2994 2997 3002 3005 3009 3011 3011 3013 3012 3015 3016 3015 3014 3014 3014 3012 3010 3009 3007 3004 3000 2996 2991 2986 2981 2976 2970 2965 2958 2952 2946 2944 2941 2940 2933 2930 2924 2921 2916 2913 2909 2904 2899
2988 2993 2995 2998 3002 3005 3006 3006 3005 3006 3009 3009 3008 3009 3005 3004 3001 3000 2997 2993 2989 2985 2979 2972 2968 2963 2957 2951 2945 2942 2940 2935 2931 2929 2924 2919 2913 2910 2907 2904 2898 2894 2889
2981 2988 2989 2993 2996 2997 2997 2997 2999 3001 3001 3003 2999 2999 2998 2996 2993 2990 2985 2982 2978 2974 2967 2963 2958 2952 2946 2941 2938 2935 2931 2926 2923 2921 2913 2904 2905 2898 2896 2893 2890 2885 2880
2981 2982 2983 2987 2990 2993 2992 2995 2996 2996 2994 2994 2995 2993 2991 2988 2983 2979 2975 2969 2965 2962 2957 2952 2945 2940 2937 2935 2932 2927 2924 2919 2914 2912 2906 2893 2894 2886 2883 2881 2878 2874 2869
2977 2980 2982 2985 2988 2990 2991 2992 2992 2991 2992 2991 2989 2986 2982 2977 2972 2968 2962 2959 2954 2950 2945 2940 2936 2933 2931 2929 2925 2921 2916 2910 2904 2899 2896 2883 2884 2876 2865 2869 2865 2861 2856